User: anonymous   Login
Location: Fort Wayne
(41.1310°N, 85.1290°W)
Time: 21:09:46
(UTC-05:00)
Language:

Meteor 2-9 Rocket - Orbit

View from above orbital plane
View from above orbital plane
View from above satellite
View from above satellite

Ground track
Ground track

The orbit data is extracted from the following two-line orbital elements,

1 13719U 82116B   17018.49027896  .00000009  00000-0 -20244-5 0  9998
2 13719  81.2555 147.0183 0072477  60.2927   8.5470 14.14596720759202
Epoch (UTC): 18 January 2017 11:46:00
Eccentricity: 0.0072477
inclination: 81.2555°
perigee height: 791 km
apogee height: 896 km
right ascension of ascending node: 147.0183°
argument of perigee: 60.2927°
revolutions per day: 14.14596720
mean anomaly at epoch: 8.5470°
orbit number at epoch: 75920

The dashed part of the orbit path shows where the satellite is in the earth's shadow,  

DLR